• In Schweiz
  • Länderverzeichnis
  • Für 7 Tage
  • Wassertemperatur
  • Satellitenkarten
  • Wetterkarte
  • Widgets
  • user-avatar
    Anmelden

    Stündliche Wetter Rivas

    Heute, 23 Juli, Montag

    Zeit Temperatur Niederschläge Wind Luftdruck Luftfeuchtigkeit
    00:00 +27°C° 0,1 mm 6 m/S 752 mmHg 84%
    01:00 +27°C° 0,1 mm 6 m/S 752 mmHg 84%
    02:00 +27°C° 0,1 mm 6 m/S 752 mmHg 84%
    03:00 +27°C° 0,1 mm 6 m/S 752 mmHg 84%
    04:00 +27°C° 0,1 mm 6 m/S 752 mmHg 84%
    05:00 +27°C° 0,1 mm 6 m/S 752 mmHg 84%
    06:00 +27°C° 0,1 mm 6 m/S 752 mmHg 84%
    07:00 +28°C° 0,1 mm 7 m/S 752 mmHg 80%
    08:00 +29°C° 0,1 mm 7 m/S 753 mmHg 76%
    09:00 +29°C° 0,1 mm 8 m/S 753 mmHg 72%
    10:00 +31°C° 0,1 mm 8 m/S 753 mmHg 70%
    11:00 +32°C° 0,1 mm 7 m/S 753 mmHg 68%
    12:00 +32°C° 0,1 mm 7 m/S 752 mmHg 67%
    13:00 +32°C° 0,1 mm 7 m/S 752 mmHg 67%
    14:00 +32°C° 0,1 mm 6 m/S 752 mmHg 68%
    15:00 +32°C° 0,1 mm 6 m/S 752 mmHg 69%
    16:00 +30°C° 0,1 mm 6 m/S 752 mmHg 73%
    17:00 +29°C° 0,1 mm 6 m/S 752 mmHg 76%
    18:00 +28°C° 0,1 mm 6 m/S 752 mmHg 80%
    19:00 +28°C° 0,1 mm 6 m/S 752 mmHg 80%
    20:00 +28°C° 0,1 mm 6 m/S 753 mmHg 81%
    21:00 +28°C° 0,1 mm 7 m/S 753 mmHg 81%
    22:00 +28°C° 0 mm 6 m/S 753 mmHg 81%
    23:00 +28°C° 0 mm 6 m/S 753 mmHg 81%

    Morgen, 24 Juli, Dienstag

    Zeit Temperatur Niederschläge Wind Luftdruck Luftfeuchtigkeit
    00:00 +27°C° 0 mm 6 m/S 753 mmHg 82%
    01:00 +27°C° 0 mm 6 m/S 753 mmHg 83%
    02:00 +27°C° 0 mm 6 m/S 753 mmHg 83%
    03:00 +27°C° 0 mm 5 m/S 752 mmHg 84%
    04:00 +27°C° 0 mm 6 m/S 752 mmHg 85%
    05:00 +27°C° 0 mm 6 m/S 753 mmHg 85%
    06:00 +27°C° 0 mm 6 m/S 753 mmHg 85%
    07:00 +27°C° 0,2 mm 7 m/S 753 mmHg 82%
    08:00 +28°C° 0,2 mm 7 m/S 753 mmHg 78%
    09:00 +29°C° 0,2 mm 7 m/S 754 mmHg 75%
    10:00 +29°C° 0,2 mm 7 m/S 753 mmHg 74%
    11:00 +30°C° 0,2 mm 7 m/S 753 mmHg 73%
    12:00 +30°C° 0,2 mm 7 m/S 753 mmHg 72%
    13:00 +30°C° 0 mm 7 m/S 752 mmHg 71%
    14:00 +32°C° 0 mm 6 m/S 752 mmHg 70%
    15:00 +32°C° 0 mm 6 m/S 751 mmHg 69%
    16:00 +30°C° 0 mm 6 m/S 752 mmHg 71%
    17:00 +30°C° 0 mm 6 m/S 752 mmHg 74%
    18:00 +29°C° 0 mm 6 m/S 752 mmHg 77%
    19:00 +29°C° 0 mm 6 m/S 752 mmHg 77%
    20:00 +28°C° 0 mm 6 m/S 753 mmHg 78%
    21:00 +28°C° 0 mm 6 m/S 754 mmHg 79%
    22:00 +28°C° 0 mm 6 m/S 754 mmHg 81%
    23:00 +27°C° 0 mm 6 m/S 753 mmHg 82%

    übermorgen, 25 Juli, Mittwoch

    Zeit Temperatur Niederschläge Wind Luftdruck Luftfeuchtigkeit
    00:00 +27°C° 0 mm 6 m/S 753 mmHg 84%
    01:00 +27°C° 0,1 mm 6 m/S 753 mmHg 85%
    02:00 +26°C° 0,1 mm 5 m/S 753 mmHg 86%
    03:00 +26°C° 0,1 mm 5 m/S 752 mmHg 87%
    04:00 +26°C° 0,2 mm 5 m/S 752 mmHg 87%
    05:00 +26°C° 0,2 mm 5 m/S 753 mmHg 87%
    06:00 +26°C° 0,2 mm 5 m/S 753 mmHg 87%
    07:00 +28°C° 0 mm 5 m/S 753 mmHg 81%
    08:00 +29°C° 0 mm 5 m/S 754 mmHg 76%
    09:00 +30°C° 0 mm 6 m/S 754 mmHg 70%
    10:00 +32°C° 0,1 mm 6 m/S 754 mmHg 67%
    11:00 +33°C° 0,1 mm 6 m/S 753 mmHg 64%
    12:00 +34°C° 0,1 mm 6 m/S 753 mmHg 61%
    13:00 +33°C° 1 mm 6 m/S 753 mmHg 64%
    14:00 +33°C° 1 mm 6 m/S 752 mmHg 68%
    15:00 +32°C° 1 mm 6 m/S 751 mmHg 71%
    16:00 +30°C° 1,3 mm 6 m/S 752 mmHg 76%
    17:00 +29°C° 1,3 mm 6 m/S 752 mmHg 80%
    18:00 +28°C° 1,3 mm 6 m/S 752 mmHg 85%
    19:00 +27°C° 0,9 mm 6 m/S 753 mmHg 86%
    20:00 +27°C° 0,9 mm 6 m/S 753 mmHg 88%
    21:00 +27°C° 0,9 mm 5 m/S 754 mmHg 90%
    22:00 +27°C° 0,4 mm 5 m/S 753 mmHg 90%
    23:00 +27°C° 0,4 mm 5 m/S 753 mmHg 90%

    26 Juli, Donnerstag

    Zeit Temperatur Niederschläge Wind Luftdruck Luftfeuchtigkeit
    00:00 +26°C° 0,4 mm 5 m/S 753 mmHg 90%
    01:00 +26°C° 0,3 mm 5 m/S 753 mmHg 90%
    02:00 +26°C° 0,3 mm 5 m/S 752 mmHg 91%
    03:00 +26°C° 0,3 mm 6 m/S 752 mmHg 91%
    04:00 +26°C° 0,2 mm 6 m/S 752 mmHg 90%
    05:00 +26°C° 0,2 mm 6 m/S 752 mmHg 89%
    06:00 +26°C° 0,2 mm 6 m/S 752 mmHg 89%
    07:00 +27°C° 0,3 mm 6 m/S 753 mmHg 85%
    08:00 +28°C° 0,3 mm 6 m/S 753 mmHg 82%
    09:00 +29°C° 0,3 mm 6 m/S 754 mmHg 78%
    10:00 +29°C° 0,8 mm 6 m/S 753 mmHg 77%
    11:00 +30°C° 0,8 mm 6 m/S 753 mmHg 76%
    12:00 +30°C° 0,8 mm 6 m/S 753 mmHg 75%
    13:00 +30°C° 1,2 mm 7 m/S 752 mmHg 78%
    14:00 +29°C° 1,2 mm 7 m/S 752 mmHg 80%
    15:00 +28°C° 1,2 mm 7 m/S 751 mmHg 83%
    16:00 +28°C° 0,8 mm 7 m/S 751 mmHg 84%
    17:00 +28°C° 0,8 mm 7 m/S 752 mmHg 85%
    18:00 +27°C° 0,8 mm 8 m/S 752 mmHg 87%
    19:00 +27°C° 0,3 mm 7 m/S 752 mmHg 87%
    20:00 +27°C° 0,3 mm 7 m/S 753 mmHg 86%
    21:00 +27°C° 0,3 mm 7 m/S 753 mmHg 86%
    22:00 +27°C° 0,1 mm 7 m/S 753 mmHg 87%
    23:00 +26°C° 0,1 mm 6 m/S 753 mmHg 87%

    27 Juli, Freitag

    Zeit Temperatur Niederschläge Wind Luftdruck Luftfeuchtigkeit
    00:00 +26°C° 0,1 mm 6 m/S 753 mmHg 87%
    01:00 +26°C° 0,1 mm 6 m/S 752 mmHg 87%
    02:00 +26°C° 0,1 mm 6 m/S 752 mmHg 87%
    03:00 +26°C° 0,1 mm 5 m/S 752 mmHg 88%
    04:00 +26°C° 0,2 mm 6 m/S 752 mmHg 88%
    05:00 +26°C° 0,2 mm 6 m/S 752 mmHg 88%
    06:00 +26°C° 0,2 mm 6 m/S 752 mmHg 88%
    07:00 +28°C° 0,2 mm 6 m/S 753 mmHg 83%
    08:00 +29°C° 0,2 mm 6 m/S 753 mmHg 78%
    09:00 +30°C° 0,2 mm 7 m/S 754 mmHg 73%
    10:00 +32°C° 0,4 mm 7 m/S 753 mmHg 71%
    11:00 +32°C° 0,4 mm 7 m/S 753 mmHg 68%
    12:00 +33°C° 0,4 mm 7 m/S 753 mmHg 65%
    13:00 +33°C° 0,5 mm 7 m/S 752 mmHg 67%
    14:00 +32°C° 0,5 mm 8 m/S 752 mmHg 70%
    15:00 +31°C° 0,5 mm 8 m/S 751 mmHg 72%
    16:00 +29°C° 0,4 mm 8 m/S 752 mmHg 77%
    17:00 +28°C° 0,4 mm 7 m/S 752 mmHg 83%
    18:00 +27°C° 0,4 mm 6 m/S 752 mmHg 88%
    19:00 +27°C° 0,3 mm 6 m/S 753 mmHg 89%
    20:00 +26°C° 0,3 mm 5 m/S 753 mmHg 90%
    21:00 +26°C° 0,3 mm 5 m/S 754 mmHg 91%
    22:00 +26°C° 0,1 mm 4 m/S 754 mmHg 91%
    23:00 +26°C° 0,1 mm 4 m/S 753 mmHg 91%

    28 Juli, Samstag

    Zeit Temperatur Niederschläge Wind Luftdruck Luftfeuchtigkeit
    00:00 +26°C° 0,1 mm 4 m/S 753 mmHg 91%
    01:00 +26°C° 0 mm 4 m/S 753 mmHg 92%
    02:00 +26°C° 0 mm 4 m/S 752 mmHg 92%
    03:00 +26°C° 0 mm 4 m/S 752 mmHg 93%
    04:00 +26°C° 0,1 mm 4 m/S 752 mmHg 92%
    05:00 +26°C° 0,1 mm 4 m/S 753 mmHg 92%
    06:00 +26°C° 0,1 mm 5 m/S 753 mmHg 91%
    07:00 +27°C° 0 mm 5 m/S 753 mmHg 85%
    08:00 +29°C° 0 mm 6 m/S 753 mmHg 78%
    09:00 +30°C° 0 mm 6 m/S 754 mmHg 72%
    10:00 +32°C° 0,2 mm 6 m/S 753 mmHg 69%
    11:00 +33°C° 0,2 mm 5 m/S 753 mmHg 67%
    12:00 +33°C° 0,2 mm 5 m/S 752 mmHg 64%
    13:00 +33°C° 1,4 mm 5 m/S 752 mmHg 68%
    14:00 +32°C° 1,4 mm 5 m/S 751 mmHg 71%
    15:00 +30°C° 1,4 mm 6 m/S 751 mmHg 74%
    16:00 +29°C° 1,8 mm 5 m/S 751 mmHg 79%
    17:00 +28°C° 1,8 mm 5 m/S 751 mmHg 83%
    18:00 +27°C° 1,8 mm 5 m/S 752 mmHg 88%
    19:00 +27°C° 1,9 mm 4 m/S 752 mmHg 89%
    20:00 +27°C° 1,9 mm 4 m/S 753 mmHg 90%
    21:00 +27°C° 1,9 mm 4 m/S 754 mmHg 90%
    22:00 +27°C° 1,2 mm 4 m/S 753 mmHg 91%
    23:00 +26°C° 1,2 mm 4 m/S 753 mmHg 91%
    Mehr zeigen